Flag for U.S.A. Weather past 2 weeks in Berkeley, California, U.S.A.

Now
70 °F

Passing clouds.


Feels Like: 75 °F
Forecast: 61 / 76 °F
Wind: 10 mph from West

Location: Metro Oakland International Airport

Current Time: Aug 30, 2015 at 11:46:36 AM

Latest Report: Aug 30, 2015 at 10:53 AM


Visibility: 10 mi

Pressure: 30.06 "Hg

Humidity: 66%

Dew point: 58 °F

Location of BerkeleyLocation

Historic Weather in Berkeley — Graph

°F

Berkeley temperature yesterday

Maximum temperature yesterday: 76 °F (at 3:53 PM)
Minimum temperature yesterday: 65 °F (at 12:53 AM)
Average temperature yesterday: 69 °F

Past Weeks' High & Low Weather Summary

 TemperatureHumidityPressure
High92 °F (Aug 15, 2:53 PM)90% (Aug 29, 10:53 AM)30.06 "Hg (Aug 29, 10:53 AM)
Low58 °F (Aug 26, 5:53 AM)25% (Aug 15, 1:53 PM)29.81 "Hg (Aug 16, 4:53 PM)
Average68 °F69%29.94 "Hg
* Reported Aug 15 10:53 AM — Aug 30 10:53 AM, Berkeley, Weather by CustomWeather, © 2015

Note: Actual official high and low records may vary slightly from our data, if they occured in-between our weather recording intervals... More about our weather records

Advertising

Berkeley weather history for previous 24 hours

 ConditionsComfort  
Time TempWeatherWind HumidityBarometerVisibility
10:53 AM
Sun, Aug 30
70 °FPassing clouds.10 mph66%30.06 "Hg10 mi
9:53 AM69 °FBroken clouds.10 mph70%30.05 "Hg10 mi
9:04 AM66 °FPartly sunny.8 mph78%30.05 "Hg10 mi
8:53 AM65 °FBroken clouds.9 mph81%30.05 "Hg10 mi
7:55 AM64 °FPassing clouds.12 mph83%30.04 "Hg10 mi
6:53 AM64 °FPassing clouds.10 mph84%30.02 "Hg10 mi
5:53 AM65 °FPartly cloudy.12 mph78%30.01 "Hg10 mi
4:53 AM63 °FPassing clouds.5 mph81%30.00 "Hg10 mi
3:53 AM65 °FPassing clouds.15 mph78%30.00 "Hg10 mi
2:53 AM65 °FPassing clouds.13 mph81%30.00 "Hg10 mi
1:53 AM65 °FPassing clouds.14 mph81%30.00 "Hg10 mi
12:53 AM65 °FPassing clouds.13 mph85%30.00 "Hg10 mi
11:53 PM
Sat, Aug 29
66 °FPassing clouds.17 mph81%30.00 "Hg10 mi
10:53 PM67 °FPassing clouds.17 mph79%30.00 "Hg10 mi
9:53 PM67 °FPassing clouds.13 mph76%30.01 "Hg10 mi
8:53 PM67 °FPassing clouds.13 mph73%29.99 "Hg10 mi
7:53 PM68 °FScattered clouds.17 mph70%29.98 "Hg10 mi
6:53 PM71 °FScattered clouds.17 mph61%29.98 "Hg10 mi
5:53 PM72 °FScattered clouds.18 mph64%29.99 "Hg10 mi
4:53 PM74 °FBroken clouds.20 mph62%29.98 "Hg10 mi
3:53 PM76 °FPartly sunny.16 mph56%30.00 "Hg10 mi
2:53 PM74 °FPartly sunny.14 mph64%30.00 "Hg10 mi
1:53 PM74 °FPartly sunny.10 mph64%30.00 "Hg10 mi
12:53 PM72 °FPartly sunny.10 mph68%30.01 "Hg10 mi
11:53 AM70 °FMostly cloudy.13 mph79%30.01 "Hg10 mi
Weather by CustomWeather, © 2015

See weather overviewHow to use our weather pages